#timestamp,LO_Frequency,Hit,StdDev 
1691593215.2,286046996.7,N
1691593235.0,286046998.2,N
1691593235.9,286046998.2,N
1691593255.8,286046999.2,N
1691593275.6,286046997.3,N
1691593295.4,286046999.4,N
1691593315.3,286046997.1,N
1691593335.1,286046997.0,N
1691593336.0,286046997.0,N
1691593355.8,286046999.2,N
1691593375.7,286046999.6,N
1691593395.5,286046996.9,N
1691593415.3,286046997.2,N
1691593435.2,286046994.9,Y
1691593455.9,286046996.8,P
1691593475.7,286046998.5,N
1691593495.6,286047000.8,N
1691593515.4,286046998.5,N
1691593535.2,286046998.1,N
1691593555.1,286047001.1,N
1691593556.0,286047001.1,N
1691593575.8,286047000.6,N
1691593595.6,286047000.3,N
1691593615.5,286047002.8,N
1691593635.3,286046999.9,N
1691593655.1,286046998.2,N
1691593675.9,286046998.4,N
1691593695.7,286046998.8,N
1691593715.5,286046998.8,N
1691593735.4,286047000.6,N
1691593755.2,286047000.3,N
1691593775.0,286047000.0,N
1691593775.9,286047000.0,N
1691593795.8,286047002.8,N
1691593815.6,286047001.8,N
1691593835.4,286047002.6,N
1691593855.3,286047004.4,N
1691593875.1,286047001.3,N
1691593876.0,286047001.3,N
1691593895.8,286047004.4,N
1691593915.7,286047004.1,N
1691593935.5,286047005.5,N
1691593955.3,286047006.0,N
1691593975.2,286047005.4,N
1691593995.9,286047003.2,N
1691594015.7,286047003.6,N
1691594035.6,286047003.0,N
1691594055.4,286047008.6,Y
1691594075.2,286047003.4,P
1691594095.1,286047003.8,P
1691594096.0,286047003.8,P
1691594115.8,286047003.2,Y
1691594135.6,286047002.8,P
1691594155.5,286046998.8,P
1691594175.3,286047000.6,N
1691594195.1,286047001.0,N
1691594215.9,286047000.1,N
1691594235.7,286047000.7,N
1691594255.5,286047000.9,N
1691594275.4,286046999.9,N
1691594295.2,286047002.5,N
1691594315.0,286047001.7,N
1691594315.9,286047001.7,N
1691594335.8,286047005.4,Y
1691594355.6,286047002.8,P
1691594375.4,286047001.0,N
1691594395.3,286046998.8,N
1691594415.1,286047000.7,N
1691594435.8,286047001.1,N
1691594455.7,286046998.7,N
1691594475.5,286047000.2,N
1691594495.3,286047002.6,N
1691594515.2,286047003.2,N
1691594535.9,286047002.1,N
1691594555.7,286047001.4,N
1691594575.6,286047004.4,Y
1691594595.4,286047002.6,P
1691594615.2,286047002.8,P
1691594635.1,286047000.3,N
1691594636.0,286047000.3,N
1691594655.8,286046999.7,N
1691594675.6,286047000.3,N
1691594695.5,286047002.9,N
1691594715.3,286046998.5,N
1691594735.1,286046998.6,N
1691594755.9,286046998.5,N
1691594775.7,286046998.1,N
1691594795.5,286046998.3,N
1691594815.4,286047002.8,N
1691594835.2,286047000.4,N
1691594855.0,286046999.7,N
1691594855.9,286046999.7,N
1691594875.8,286046999.8,N
1691594895.6,286047001.4,N
1691594915.4,286047001.3,N
1691594935.3,286047004.1,N
1691594955.1,286047001.4,N
1691594975.8,286047004.1,N
1691594995.7,286047003.2,N
1691595015.5,286047005.5,Y
1691595035.3,286047005.6,P
1691595055.2,286047003.3,N
1691595075.0,286047005.8,N
1691595075.9,286047005.8,N
1691595095.7,286047003.0,N
1691595115.6,286047003.8,N
1691595135.4,286047005.4,Y
1691595155.2,286047000.9,P
1691595175.1,286047000.4,N
1691595176.0,286047000.4,N
1691595225.8,286047000.8,E
1691595235.8,286046998.6,N
1691595255.6,286046997.1,P
1691595275.4,286046999.6,N
1691595295.3,286046998.2,N
1691595315.1,286046998.8,N
1691595335.8,286046998.4,N
1691595355.7,286046996.7,Y
1691595375.5,286047000.0,P
1691595395.3,286046999.7,N
1691595415.2,286047000.1,N
1691595435.0,286047002.2,Y
1691595435.9,286047002.2,P
1691595455.7,286047004.3,P
1691595475.6,286047001.4,N
1691595495.4,286047004.4,N
1691595515.2,286047003.8,N
1691595535.1,286047003.8,N
1691595536.0,286047003.8,N
1691595555.8,286047003.4,N
1691595575.6,286047003.1,N
1691595595.5,286047005.9,Y
1691595615.3,286047002.3,P
1691595635.1,286047002.5,P
1691595655.9,286047002.3,P
1691595675.7,286047001.6,Y
1691595695.6,286047000.4,P
1691595715.4,286047000.3,N
1691595735.2,286047000.9,N
1691595755.1,286047000.4,N
1691595756.0,286047000.4,N
1691595775.8,286047002.7,Y
1691595795.6,286047000.5,P
1691595815.5,286046999.8,N
1691595835.3,286047001.5,P
1691595855.1,286047000.7,N
1691595875.9,286046998.1,Y
1691595895.7,286046998.6,P
1691595915.5,286047000.3,N
1691595935.4,286047001.1,N
1691595955.2,286047001.2,N
1691595975.0,286046998.7,N
1691595975.9,286046998.7,N
1691595995.8,286047000.7,N
1691596015.6,286047000.7,N
1691596035.4,286047002.8,N
1691596055.3,286047000.2,N
1691596075.1,286046999.7,N
1691596076.0,286046999.7,N
1691596095.8,286046999.8,N
1691596115.7,286046999.9,N
1691596135.5,286046999.8,N
1691596155.3,286047000.1,N
1691596175.2,286047000.4,N
1691596195.9,286047000.5,N
1691596215.7,286047002.4,N
1691596235.6,286047001.4,N
1691596255.4,286047000.4,N
1691596275.2,286047000.0,N
1691596295.1,286047002.5,N
1691596296.0,286047002.5,N
1691596315.8,286047003.6,Y
1691596335.6,286047003.9,P
1691596355.5,286047002.1,N
1691596375.3,286047004.3,P
1691596395.1,286047004.4,N
1691596415.9,286047001.8,N
1691596435.7,286047001.4,N
1691596455.5,286047000.2,N
1691596475.4,286047002.0,N
1691596495.2,286047003.7,N
1691596515.0,286047001.3,N
1691596515.9,286047001.3,N
1691596535.8,286047005.9,Y
1691596555.6,286047000.9,P
1691596575.4,286047000.7,N
1691596595.3,286047001.9,N
1691596615.1,286047002.7,Y
1691596635.8,286047000.6,P
1691596655.7,286047000.2,N
1691596675.5,286047002.7,P
1691596695.3,286047000.6,N
1691596715.2,286047004.1,Y
1691596735.0,286046996.9,P
1691596735.9,286046996.9,N
1691596755.7,286046998.9,N
1691596775.6,286046999.3,N
1691596795.4,286046997.0,N
